Погода в Баабде

Ливан     33°50′39″N   35°31′53″E
темп.,
°C
ветер,
м/с
пор.,
м/с
влажн.,
%
обл.,
%
осадки,
мм/ч
давл.,
гПа
погр.,
м
10 августа, ср
ср1000:00+25ю22714 0.1 1009569
03:00+24ююв22711 0.1 1007276
06:00+24ю23721 0.2 1007268
09:00+26юз34620 0.3 10081047
12:00+27зюз54582 0.0 1008924
15:00+28зюз55591 0.0 10071071
18:00+27юз44650 0.0 1006774
21:00+26ююз34716 0.0 1007641
11 августа, чт
чт1100:00+25ю337525 0.1 1007437
03:00+25ю23701 0.2 1006424
06:00+24юв23746 0.0 1007290
09:00+27юз44651 0.1 1008763
12:00+28зюз54650 0.0 1008733
15:00+28з43610 0.0 1007783
18:00+27зсз32650 0.0 1007643
21:00+26сз11720 0.0 1008453
12 августа, пт
пт1200:00+25сз11740 0.0 1008346
03:00+24ссз11760 0.0 1007352
06:00+24ссз11750 0.0 1008321
09:00+26зсз21590 0.0 1008576
12:00+28зсз32560 0.0 1008748
15:00+28зсз32530 0.0 1008768
18:00+27сз32570 0.0 1008638
21:00+25сз11620 0.0 1008449
13 августа, сб
сб1300:00+25з11650 0.0 1008373
03:00+24ююз11680 0.0 1008445
06:00+23ю11670 0.0 1008387
09:00+26юз32560 0.0 1008588
12:00+27зюз43560 0.0 1008654
15:00+27зюз43590 0.0 1008683
18:00+26зюз32640 0.0 1007636
21:00+25ююз22690 0.0 1007447
14 августа, вс
вс1400:00+24ююз33691 0.0 1007431
03:00+24ю23654 0.0 1007285
06:00+24ююв23620 0.0 1006137
09:00+27юз44620 0.0 1007770
12:00+28зюз55630 0.0 1007785
15:00+28зюз54630 0.0 1006699
18:00+27зюз33700 0.0 1006654
21:00+25ююз32792 0.0 1007440